#timestamp,LO_Frequency,Hit,StdDev 
1598716815.6,286046998.3,N
1598716835.4,286047002.4,N
1598716855.3,286047002.1,N
1598716875.1,286047005.5,Y
1598716895.9,286047004.7,P
1598716915.7,286047004.8,N
1598716935.5,286047005.0,N
1598716955.4,286047007.5,Y
1598716975.2,286047002.5,P
1598716995.1,286046999.8,N
1598716996.0,286046999.8,N
1598717015.8,286047001.4,N
1598717035.6,286047001.9,N
1598717055.5,286047002.2,N
1598717075.3,286047002.5,N
1598717095.1,286047000.2,N
1598717115.9,286047002.8,N
1598717135.7,286046999.9,N
1598717155.6,286047000.1,N
1598717175.4,286046998.2,N
1598717195.2,286046998.7,N
1598717215.1,286046999.3,N
1598717216.0,286046999.3,N
1598717235.8,286046998.2,N
1598717255.7,286046998.8,N
1598717275.5,286047001.2,N
1598717295.3,286046998.3,N
1598717315.2,286046996.5,N
1598717335.0,286046997.2,N
1598717335.9,286046997.2,N
1598717355.7,286046996.9,N
1598717375.6,286046996.5,N
1598717395.4,286046997.0,N
1598717415.3,286046997.3,N
1598717435.1,286046997.6,N
1598717455.8,286046995.4,N
1598717475.7,286046997.0,N
1598717495.5,286046997.0,N
1598717515.4,286046997.2,N
1598717535.2,286046997.1,N
1598717555.0,286046996.8,N
1598717555.9,286046996.8,N
1598717575.8,286046995.3,N
1598717595.6,286046995.1,N
1598717615.4,286046997.5,N
1598717635.3,286046996.7,N
1598717655.1,286046997.3,N
1598717675.9,286046997.0,N
1598717695.7,286046996.5,N
1598717715.5,286046997.2,N
1598717735.4,286046997.8,N
1598717755.2,286046997.0,N
1598717775.1,286046997.5,N
1598717776.0,286046997.5,N
1598717795.8,286046997.8,N
1598717815.6,286046997.5,N
1598717835.5,286046997.9,Y
1598717855.3,286046998.5,P
1598717875.1,286046999.3,N
1598717895.9,286046998.6,N
1598717915.7,286047001.0,N
1598717935.6,286047000.1,N
1598717955.4,286047000.0,N
1598717975.2,286047000.8,N
1598717995.1,286046998.7,N
1598717996.0,286046998.7,N
1598718015.8,286046999.7,N
1598718035.7,286047002.8,N
1598718055.5,286047002.8,N
1598718075.3,286046999.9,N
1598718095.2,286047002.0,N
1598718115.0,286047002.6,N
1598718115.9,286047002.6,N
1598718135.8,286047000.2,N
1598718155.6,286047000.1,N
1598718175.4,286047000.1,N
1598718195.3,286047002.7,N
1598718215.1,286047002.4,N
1598718235.8,286046999.8,N
1598718255.7,286046999.7,N
1598718275.5,286047002.6,N
1598718295.4,286046999.7,N
1598718315.2,286046999.9,N
1598718335.0,286047001.7,N
1598718335.9,286047001.7,N
1598718355.8,286047001.6,N
1598718375.6,286047001.9,N
1598718395.4,286047001.9,N
1598718415.3,286047004.4,Y
1598718435.1,286046999.8,P
1598718455.9,286047000.3,N
1598718475.7,286047000.8,N
1598718495.5,286047000.7,N
1598718515.4,286047002.8,Y
1598718535.2,286047002.3,P
1598718555.0,286047000.9,N
1598718555.9,286047000.9,N
1598718575.8,286047000.6,N
1598718595.6,286046998.8,N
1598718615.5,286047000.4,N
1598718635.3,286047002.3,N
1598718655.1,286047002.7,N
1598718675.9,286047000.2,N
1598718695.7,286046999.9,N
1598718715.5,286047003.7,Y
1598718735.4,286047004.1,P
1598718755.2,286047007.1,P
1598718775.1,286047009.0,P
1598718776.0,286047009.0,N
1598718795.8,286047010.7,Y
1598718815.6,286047001.4,P
1598718835.5,286047004.3,N
1598718855.3,286047001.9,N
1598718875.2,286047000.5,N
1598718895.9,286047000.4,N
1598718915.7,286046999.1,N
1598718935.6,286046995.4,N
1598718955.4,286046995.2,N
1598718975.2,286046995.3,N
1598718995.1,286046995.7,N
1598718996.0,286046995.7,N
1598719015.8,286046995.9,N
1598719035.7,286046993.3,N
1598719055.5,286046993.9,N
1598719075.3,286046993.9,N
1598719095.2,286046991.7,N
1598719115.0,286046994.6,N
1598719115.9,286046994.6,N
1598719135.8,286046991.7,N
1598719155.6,286046992.6,N
1598719175.4,286046992.4,N
1598719195.3,286046992.4,N
1598719215.1,286046992.7,N
1598719235.8,286046993.2,N
1598719255.7,286046993.2,N
1598719275.5,286046993.0,N
1598719295.4,286046992.7,N
1598719315.2,286046992.3,N
1598719335.0,286046993.0,N
1598719335.9,286046993.0,N
1598719355.8,286046990.2,N
1598719375.6,286046990.6,N
1598719395.5,286046990.3,Y
1598719415.3,286046997.3,P
1598719435.1,286046997.2,N
1598719455.9,286046996.7,N
1598719475.7,286046997.2,N
1598719495.5,286046997.3,N
1598719515.4,286046994.9,Y
1598719535.2,286046998.6,P
1598719555.1,286046998.6,N
1598719556.0,286046998.6,N
1598719575.8,286046998.1,N
1598719595.6,286047001.2,N
1598719615.5,286047001.2,N
1598719635.3,286046998.2,N
1598719655.2,286046998.2,N
1598719675.9,286046998.3,N
1598719695.7,286046998.3,N
1598719715.6,286046998.3,N
1598719735.4,286046998.2,N
1598719755.3,286046998.4,N
1598719775.1,286047000.7,N
1598719776.0,286047000.7,N
1598719795.8,286047001.1,N
1598719815.7,286046998.3,N
1598719835.5,286046998.7,N
1598719855.3,286046998.2,N
1598719875.2,286046998.1,N
1598719895.0,286046998.8,N
1598719895.9,286046998.8,N
1598719915.8,286046998.1,N
1598719935.6,286046998.5,N
1598719955.4,286046998.7,N
1598719975.3,286046998.3,N
1598719995.1,286046999.3,N
1598720015.9,286046998.9,N
1598720035.7,286046998.9,N
1598720055.5,286046998.2,N
1598720075.4,286046999.3,N
1598720095.2,286046998.9,N
1598720115.0,286046998.5,N
1598720115.9,286046998.5,N
1598720135.8,286046998.8,N
1598720155.6,286046998.4,N
1598720175.5,286046998.4,N
1598720195.3,286046999.3,N
1598720215.1,286046999.0,N
1598720235.9,286046998.6,N
1598720255.7,286046998.7,N
1598720275.5,286046999.3,N
1598720295.4,286046999.3,N
1598720315.2,286046998.8,N
1598720335.1,286046999.4,N
1598720336.0,286046999.4,N
1598720355.8,286046999.1,N
1598720375.6,286046999.0,N
1598720395.5,286046999.1,N
